Regional Weather Roundup
Issued by NWS Jackson, KY

Home | Current Version | Previous Version | Text Only | Print | Product List | Glossary Off
Versions: 1 2 3 4 5 6 7 8 9 10 11 12 13 14 15 16 17 18 19 20 21 22 23 24 25 26 27 28 29 30 31 32 33 34 35 36 37 38 39 40 41 42 43 44 45 46 47 48 49 50

000
ASUS43 KJKL 301510
RWRJKL

EAST KENTUCKY HOURLY WEATHER ROUNDUP
NATIONAL WEATHER SERVICE JACKSON KY
1100 AM EDT SAT MAY 30 2015

NOTE: "FAIR" INDICATES FEW OR NO CLOUDS BELOW 12,000 FEET WITH
NO SIGNIFICANT WEATHER AND/OR OBSTRUCTIONS TO VISIBILITY.

* THESE REPORTS ARE NOT UNDER NWS QUALITY CONTROL AND MAY NOT
  REPORT WEATHER SUCH AS PRECIPITATION AND FOG.

KYZ079-080-083-085-087-088-110-112-115-119-120-301600
...EASTERN KENTUCKY...

CITY           SKY/WX    TMP DP  RH WIND       PRES   REMARKS
JACKSON        MOSUNNY   76  64  66 VRB5      30.17F
LONDON         PTSUNNY   77  62  59 S8        30.16F
SOMERSET*      MOSUNNY   77  63  61 S7        30.15S
MONTICELLO*    MOSUNNY   81  67  62 S10       30.16F
MIDDLESBORO*   MOSUNNY   78  64  61 S7        30.18F
HARLAN APT*    SUNNY     79  61  53 S3        30.19F
BLACK MTN*       N/A     68  59  73 SW1         N/A
PIKEVILLE APT* SUNNY     77  64  65 SW5       30.18F
BIG SANDY*     MOSUNNY   77  66  68 S8        30.17F
MOREHEAD APT*  PTSUNNY   79  66  65 S10G17    30.16S
$$

KYZ035-036-041-042-044-050-067-078-099-301600
...CENTRAL KENTUCKY...

CITY           SKY/WX    TMP DP  RH WIND       PRES   REMARKS
MT STERLING*   MOSUNNY   77  68  73 SW12      30.15S
FLEMING/MASON* CLOUDY    77  66  69 SW10      30.13S
DANVILLE*      SUNNY     79  64  61 S10       30.13F
RICHMOND*      MOSUNNY   79  63  57 S14       30.13S
LEXINGTON      PTSUNNY   77  65  66 S12       30.12S
FRANKFORT        N/A     81  66  60 MISG      30.09S
$$

KYZ091>093-OHZ055-061-077-WVZ005-015-034-035-042-301600
...SOUTHERN OHIO/WEST VIRGINIA...

CITY           SKY/WX    TMP DP  RH WIND       PRES   REMARKS
COVINGTON      MOSUNNY   79  68  69 S12       30.08F
COLUMBUS       PTSUNNY   74  67  78 SW8       30.08F
DAYTON         PTSUNNY   79  68  69 SW10      30.07F
WILMINGTON     MOSUNNY   78  66  66 S12       30.09F
HUNTINGTON     PTSUNNY   78  66  66 VRB7      30.14S
CHARLESTON     PTSUNNY   76  66  71 SE7       30.16S
PINEVILLE*     MOSUNNY   77  67  70 MISG      30.26S
BECKLEY        SUNNY     76  58  53 SW10      30.25S
BLUEFIELD      MOSUNNY   78  60  53 SW6       30.27F
$$

VAZ002-007-008-TNZ017-027-036-066-071-301600
...SOUTHWEST VIRGINIA/EAST TENNESSEE...

CITY           SKY/WX    TMP DP  RH WIND       PRES   REMARKS
WISE*          SUNNY     73  55  53 S7        30.26F
JONESVILLE*    SUNNY     77  63  61 CALM      30.22S
ABINGDON*      SUNNY     78  59  51 CALM      30.24S
BRISTOL        MOSUNNY   79  59  50 VRB3      30.21F
KNOXVILLE      MOSUNNY   79  59  50 N3        30.16F
OAK RIDGE      MOSUNNY   80  60  50 SE8       30.18F
CROSSVILLE     SUNNY     74  60  61 S10       30.19F
NASHVILLE      PTSUNNY   80  68  66 S10       30.09F
$$

...KEY TO REMARKS...
VSB - VISIBILITY IN MILES
WCI - WIND CHILL INDEX
HX  - HEAT INDEX

$$



USA.gov is the U.S. government's official web portal to all federal, state and local government web resources and services.